STARLINK-11696, 64324

Orbit data source: Space-Track

STARLINK-11696, 64324 is a payload satellite owned by SpaceX/Seattle (US) in LEO that was launched on Tue, 10 Jun 2025 UTC via an FALCON 9 launch vehicle from the Air Force Eastern Test Range (AFETR). Payload-class satellites include a variety of spacecraft equipped with specific instruments for various scientific and technological missions. These include communications satellites like Starlink; space stations such as the ISS; scientific satellites like the Hubble; Earth observation satellites from companies like Planet Labs, Umbra, and HawkEye 360; GPS; miniature CubeSats for education and research; and military/defense satellites.

Loading next visibility...
Identifier
64324, 2025-124H
Orbit
LEO
Country
Flag of USUS
Related business
Manufacturer
SpaceX/Seattle
Mission
Operational Commercial Communications
Bus & Motor
STARLINK V2M, Unknown motor
Mass
730 kg wet, ~700 kg dry
Launch date (UTC)
2025-06-10 (3 months ago)
Launch vehicle
FALCON 9
Launch site
Air Force Eastern Test Range (AFETR)
Object type
Payload
Rocket body
Debris
Shape & HBR
Box + 2 Pan, 14.5 m
Radar Cross Section
36.964 m², Large (>1 m²)

Expand to show TLE details & history
Last TLE update: 1 day ago

TLE from 1 day ago
0 STARLINK-11696
1 64324U 25124H   25241.96546229  .00111645  00000-0  86092-3 0  9996
2 64324  42.9979 104.6452 0001861 260.6623  99.4034 15.70867529 12680
Epoch: 2025-08-29T23:10Z
TLE epoch observation values (Epoch: 2025-08-29T23:10:15.941Z)
Latitude
-0.00005°
Longitude
138.67218°
Altitude
356.392 km
Speed
7.697 km/s
True Right ascension
06h 58m 34s
True Declination
0° 00' 00"
Sunlit
Object was in daylight at epoch
Visualization orbit readout
Latitude
Unknown
Longitude
Unknown
Altitude
Unknown
Speed
Unknown
Apparent Right ascension
Unknown
Apparent Declination
Unknown
Sunlit
N/A
Visualization observer readout
Local Sidereal Time
19:07:28
Azimuth
Unknown
Elevation
Unknown
Doppler factor
Unknown
Orbital elements
Apogee altitude
359.652 km
Perigee altitude
357.145 km
Semi-major axis
6,736.535 km
Eccentricity
0.00019
Inclination
42.9979°
RAAN
104.6452°
Arg. of periapsis
260.6623°
True anomaly
99.42444°
Mean anomaly
99.4034°
Eccentric anomaly
99.41392°
Mean motion
3.92544 °/min
Orbital period
91.71 mins
BSTAR
0.00086092
Loading maneuver chart data...
Computing Atmospheric mass density...
Loading historical data...
Loading historical data...
Loading historical data...
Loading historical data...
Loading historical data...
Loading historical data...
Loading historical data...

Documentation

Showing up to 5 results
|